[Date Prev][Date Next][Thread Prev][Thread Next][Date Index][Thread Index]

[jamsat-news:1016] jas2info #114



=========================   最新情報   ==============================

        Last updated :Mon.25-Jan.-1999 19:00 (JST) #114

====================================================================
   
     衛星情報 FOシリーズの軌道要素、テレメトリ、QSOの状況等を
   まとめてみました.

  1)FO−29(ふじ3号)は1月25日 (月)の14:39(JST)からの
     パスではJDディジタルモードで運用されておりましたが、当局が観測中に
     14:44頃にJAアナログに切り替わりました.信号は力強いRS59+で
     安定したテレメトリを送信しておりました.
         
 ■ 軌道要素1:「jamsatーkeps:854」より
                 SB KEPS @ AMSAT  $ORB99023.N
                 2Line Orbital Elements 99023.AMSAT

  HR AMSAT ORBITAL ELEMENTS FOR AMATEUR SATELLITES IN NASA FORMAT
  FROM WA5QGD FORT WORTH,TX January 23, 1999
  SEND SUBSCRIBE/UNSUBSCRIBE TO majordomo@amsat.org ONLY
  BID: ORB99023.N

  DECODE 2-LINE ELSETS WITH THE FOLLOWING KEY:
  1 AAAAAU 00  0  0 BBBBB.BBBBBBBB  .CCCCCCCC  00000-0  00000-0 0  DDDZ
  2 AAAAA EEE.EEEE FFF.FFFF GGGGGGG HHH.HHHH III.IIII JJ.JJJJJJJJKKKKKZ
  KEY: A-CATALOGNUM B-EPOCHTIME C-DECAY D-ELSETNUM E-INCLINATION F-RAAN
  G-ECCENTRICITY H-ARGPERIGEE I-MNANOM J-MNMOTION K-ORBITNUM Z-CHECKSUM

  TO ALL RADIO AMATEURS BT

  FO-29
  1 24278U 96046B   99020.94178334  .00000063  00000-0  97495-4 0 02199
  2 24278 098.5430 351.9159 0352266 115.4957 248.3052 13.52657732119908

 ■ 軌道要素2:「jamsatーkeps:855」より
                 SB KEPS @ AMSAT  $ORB99023.O
                 Orbital Elements  99023.OSCAR

  HR AMSAT ORBITAL ELEMENTS FOR OSCAR SATELLITES
  FROM WA5QGD FORT WORTH,TX January 23, 1999
  SEND SUBSCRIBE/UNSUBSCRIBE TO majordomo@amsat.org ONLY
  BID: ORB99023.O
  TO ALL RADIO AMATEURS BT

  Satellite: FO-29
  Catalog number: 24278
  Epoch time:      99020.94178334
  Element set:    0219
  Inclination:      098.5430 deg
  RA of node:       351.9159 deg
  Eccentricity:    0.0352266
  Arg of perigee:   115.4957 deg
  Mean anomaly:     248.3052 deg
  Mean motion:   13.52657732 rev/day
  Decay rate:        6.3e-07 rev/day^2
  Epoch rev:           11990
  Checksum:              328

 -----------------------------------------------------------
 2)FO−29(ふじ3号)の 1月25日(月)のJDテレメトリの一部分は
     次のようになっていました.上記のように途中14:44(JST)より
     JAアナログモードに切り替わりました。その模様をテレメトリとして
     データ取得しましたので掲載します.
 
 AS12049PC  25Jan99
 JST 14:39 - 14:50
 * JST 14:44 の仰角最大のときJDディジタルからJAアナログへ切り替え.
 
 cmd:DA
 01/25/99  14:40:07
 cmd:8J1JCS>BEACON [01/25/99  14:40:28]:9C 03 63 08 00 3A 00 00 00 00
 00 00 0F F9 48 6A 60 93 91 B0
 AA 52 A9 01 EE A5 A6 A6 A3 A4

 8J1JCS>BEACON [01/25/99  14:40:29]:95 02 00 09 00 00 B2 40 00 00
 00 00 39 34 00 72 76 82 86 85
 00 00 00 96 7F B3 F7 00 00 00

 8J1JCS>BEACON [01/25/99  14:40:30]:9C 03 63 08 00 3A 00 00 00 00
 00 00 0F F9 48 6A 60 92 91 B0
 AA 52 A8 01 D6 A5 A6 A6 A3 A4

 8J1JCS>BEACON [01/25/99  14:40:31]:95 02 00 09 00 00 B2 40 00 00
 00 00 39 34 00 72 76 82 86 85
 00 00 00 96 7F B3 F7 00 00 00

 8J1JCS>BEACON [01/25/99  14:40:37]:9C 03 63 08 00 3A 00 00 00 00
 00 00 0F F9 4D 63 60 93 91 B0
 AA 52 A9 01 D6 A5 A6 A6 A3 A4

 8J1JCS>BEACON [01/25/99  14:40:39]:95 02 00 09 00 00 B2 40 00 00
 00 00 00 34 00 72 76 82 86 84
 00 00 00 96 7F B3 F7 00 00 00

 8J1JCS>BEACON [01/25/99  14:40:40]:9C 03 63 08 00 3A 00 00 00 00
 00 00 0F F9 4D 63 60 93 91 B0
 AA 52 A8 01 79 A5 A6 A6 A3 A4

 8J1JCS>BEACON [01/25/99  14:40:41]:95 02 00 09 00 00 B2 40 00 00
 00 00 00 34 00 72 76 82 86 84
 00 00 00 96 7F B3 F7 00 00 00

 8J1JCS>BEACON [01/25/99  14:40:42]:
 JAS-2    '97/01/25 05:35:33
 9C 03 63 08 00 3A 00 00 00 00
 00 00 0F F9 52 64 60 93 91 B0
 AA 52 A8 01 EE A5 A6 A6 A3 A4

 8J1JCS>BEACON [01/25/99  14:40:43]:95 02 00 09 00 00 B2 40 00 00
 00 00 39 34 00 72 76 82 86 84
 00 00 00 96 7F B3 F7 00 00 00

 8J1JCS>BEACON [01/25/99  14:40:44]:
 User not connect.
 8J1JCS>BEACON [01/25/99  14:40:46]:
 Total    2 File(s)
  No.  Date  UTC    To    From   Size   Subject
 0002 01/24 13:45 ALL    HB9SKA      89 Hello agn (2)
 0001 01
 8J1JCS>BEACON [01/25/99  14:40:47]:/23 14:43 ALL    HB9SKA      10 Hello agn

 8J1JCS>BEACON [01/25/99  14:40:56]:9C 03 63 08 00 3A 00 00 00 00
 00 00 0F F9 57 65 60 93 91 B0
 AB 52 A8 01 7A A5 A6 A6 A3 A4

 8J1JCS>BEACON [01/25/99  14:40:57]:95 02 00 09 00 00 B2 40 00 00
 00 00 00 34 00 72 76 82 86 84
 00 00 00 96 7F B3 F7 00 00 00

 8J1JCS>BEACON [01/25/99  14:40:58]:9C 03 63 08 00 3A 00 00 00 00
 00 00 0F F9 57 65 60 93 91 B0
 AB 52 A8 01 9D A5 A6 A6 A3 A4

 8J1JCS>BEACON [01/25/99  14:41:00]:95 02 00 09 00 00 B2 40 00 00
 00 00 00 34 00 72 76 82 86 84
 00 00 00 96 7F B3 F7 00 00 00

 8J1JCS>BEACON [01/25/99  14:41:04]:9C 03 63 08 00 3A 00 00 00 00
 00 00 0F F9 5C 67 60 92 91 B0
 AA 52 A8 01 EF A5 A6 A6 A3 A4

 8J1JCS>BEACON [01/25/99  14:41:05]:95 02 00 09 00 00 B2 40 00 00
 00 00 39 34 00 72 76 82 86 84
 00 00 00 96 7F B3 F7 00 00 00

 8J1JCS>BEACON [01/25/99  14:41:07]:9C 03 63 08 00 3A 00 00 00 00
 00 00 0F F9 5C 67 60 93 91 B0
 AB 52 A8 01 D6 A5 A6 A6 A3 A4

 8J1JCS>BEACON [01/25/99  14:41:08]:95 02 00 09 00 00 B2 40 00 00
 00 00 39 34 00 72 76 82 86 84
 00 00 00 96 7F B3 F7 00 00 00

 8J1JCS>BEACON [01/25/99  14:41:12]:9C 03 63 08 00 3A 00 00 00 00
 00 00 0F F9 61 67 60 92 91 B0
 AB 52 A8 01 EE A5 A6 A6 A3 A4

 8J1JCS>BEACON [01/25/99  14:41:14]:95 02 00 09 00 00 B2 40 00 00
 00 00 00 34 00 72 76 82 86 84
 00 00 00 95 7F B3 F7 00 00 00

 8J1JCS>BEACON [01/25/99  14:41:15]:9C 03 63 08 00 3A 00 00 00 00
 00 00 0F F9 61 67 60 93 91 AF
 AA 52 A8 01 ED A5 A6 A6 A3 A4

 8J1JCS>BEACON [01/25/99  14:41:16]:95 02 00 09 00 00 B2 40 00 00
 00 00 00 34 00 72 76 82 86 84
 00 00 00 95 7F B3 F7 00 00 00

 8J1JCS>BEACON [01/25/99  14:41:28]:9C 03 63 08 00 3A 00 00 00 00
 00 00 0F F9 66 6C 60 93 91 B0
 AA 52 A8 01 D6 A5 A6 A6 A3 A4

 8J1JCS>BEACON [01/25/99  14:41:30]:95 02 00 09 00 00 B2 40 00 00
 00 00 39 34 00 72 76 82 86 84
 00 00 00 95 7F B3 F7 00 00 00

 8J1JCS>BEACON [01/25/99  14:41:31]:9C 03 63 08 00 3A 00 00 00 00
 00 00 0F F9 66 6D 60 93 91 B0
 AA 52 A8 01 78 A5 A6 A6 A3 A4

 8J1JCS>BEACON [01/25/99  14:41:32]:95 02 00 09 00 00 B2 40 00 00
 00 00 39 34 00 72 76 82 86 84
 00 00 00 95 7F B3 F7 00 00 00

 8J1JCS>BEACON [01/25/99  14:41:36]:9C 03 63 08 00 3A 00 00 00 00
 00 00 0F F9 6B 6B 60 93 91 B0
 AA 52 A7 01 ED A5 A6 A6 A3 A4

 8J1JCS>BEACON [01/25/99  14:41:37]:95 02 00 09 00 00 B2 40 00 00
 00 00 00 34 00 72 76 82 85 83
 00 00 00 95 7F B3 F7 00 00 00

 8J1JCS>BEACON [01/25/99  14:41:39]:9C 03 63 08 00 3A 00 00 00 00
 00 00 0F F9 6B 6B 60 92 91 B0
 AB 52 A7 01 EE A4 A6 A6 A3 A4

 8J1JCS>BEACON [01/25/99  14:41:40]:95 02 00 09 00 00 B2 40 00 00
 00 00 00 34 00 72 76 82 85 83
 00 00 00 95 7F B3 F7 00 00 00

 8J1JCS>BEACON [01/25/99  14:42:05]:DC 03 63 08 00 3B 00 00 00 00
 00 00 0F F9 7A 7F 60 93 91 B0
 AA 52 A7 51 D7 A5 A6 A6 A3 A4

 8J1JCS>BEACON [01/25/99  14:42:07]:95 02 00 09 00 00 B2 40 00 00
 00 00 39 34 00 72 76 82 85 83
 00 00 00 95 80 B3 F7 00 00 00

 8J1JCS>BEACON [01/25/99  14:42:40]:
 JAS-2    '97/01/25 05:37:33
 DC 03 63 08 00 3B 00 00 00 00
 00 00 0F F9 8E 83 60 93 92 B0
 AA 52 A7 70 9A A5 A6 A6 A3 A4

 8J1JCS>BEACON [01/25/99  14:42:41]:95 02 00 09 00 00 B2 40 00 00
 00 00 3D 42 00 70 74 82 85 83
 00 00 00 95 80 B3 F7 00 00 00
 8J1JCS>BEACON [01/25/99  14:42:42]:
 User not connect.
 8J1JCS>BEACON [01/25/99  14:42:43]:
 Total    2 File(s)
  No.  Date  UTC    To    From   Size   Subject
 0002 01/24 13:45 ALL    HB9SKA      89 Hello agn (2)
 0001 01
 8J1JCS>BEACON [01/25/99  14:42:44]:/23 14:43 ALL    HB9SKA      10 Hello agn

 8J1JCS>BEACON [01/25/99  14:42:55]:DC 03 63 08 00 3B 00 00 00 00
 00 00 0F F9 93 82 60 93 91 B0
 AA 52 A9 84 EE A5 A6 A6 A3 A4

 8J1JCS>BEACON [01/25/99  14:42:56]:55 02 00 09 00 00 B2 40 00 00
 00 00 FA 42 00 70 74 83 85 84
 00 00 00 95 80 B3 F7 00 00 00

 8J1JCS>BEACON [01/25/99  14:43:15]:DC 03 63 08 00 3B 00 00 00 00
 00 00 0F F9 9D 82 60 93 91 B0
 AB 52 A8 79 ED A5 A6 A6 A3 A4

 8J1JCS>BEACON [01/25/99  14:43:16]:D5 02 00 09 00 00 B2 40 00 00
 00 00 FA 42 00 70 74 83 86 85
 00 00 00 95 80 B3 F7 00 00 00



 cmd:MODE CW
 MODE     was JAS
 cwe:K                                          
 HI HI AE C7 88 55 05 3C FF 0D 00 15 62 4C 7A 60 93 92 B0 90 A5 A5 A3 A4 A5 
 HI HI AE C7 88 55 O5 3C FF 0D 00 15 78 34 84 60 93 92 B0 6D A5 A4 A3 A3 A4 
 HI HI AE C7 88 55 1A 3C FF 00 00 15          60 93 92 B0 7E A5 A4 A3 A3 A5 
 HI HI AE C7 88 55 14 3C FF 1A 00 15 9F 76 84 61 93 92 B0  2 A5 A4 A3 A3 A5  
 HI HI AE C7 88 55  
 HI HI AE C7 88 55                         60 61 93 92 B0 9E A5 A4 A3 A3 A5 
 HI HI AE C7 88 55 0  3C FF 0D 00 15 22 4D 67 61 93 92 B0 6E A5 A3 A3 A3 A5 
 HI HI AE C7 88 55 08 3C FF 0D 00 15 49 1F 73 60 93 92 B0 73 A5 A3 A3 A3 A5 
 HI HI AE C7 88 55 05 0D          15 85 18 7C 60  

 *[ ]内の時刻は当局がJSTで付加しました.
 *データ量縮小のため空行は省略.

   JDディジタルテレメトリの最後のデータの換算例.

  テレメトリ	内   容		       換算値	単 位
 F1ー12磁気センサーX軸      =	122549.0 [nT]
 F1ー13磁気センサーZ軸      =  	 32352.9 [nT]
 F0ー15太陽電池発生電流      =	  1274.5 [mA]
 F0ー16B充放電電流 	       =	   118.4 [mA]
 F0ー17B端子電圧	       =  	    15.8 [V]
 F0ー18B中間端子電圧	       =	     7.0 [V]
 F0ー19バス電圧   	       =	    17.3 [V]
 F0ー20+5安定化電圧	       =	     5.1 [V]
 F0ー21ー5V安定化電圧      =	    -4.9 [V]
 F0ー22+10V安定化電圧   =	    10.1 [V]
 F0ー23JTA出力電力	       =	   688.4 [mW]
 F0ー24JTD出力電力	       =	  1876.6 [mW]
 F0ー25Bセル温度	       =	    17.8 [℃]
 F0ー26構体温度ー1	       =	    17.4 [℃]
 F0ー27構体温度ー2	       =	    17.4 [℃]
 F0ー28構体温度ー3	       =	    18.6 [℃]
 F0ー29構体温度ー4	       =	    18.2 [℃]
 F1ー18太陽電池パネル温度ー1=	    20.2 [℃]
 F1ー19太陽電池パネル温度ー2=	    17.9 [℃]
 F1ー24太陽電池パネル温度ー3=	     6.6 [℃]
 F1ー23JTD  Tr温度      =	    24.0 [℃]

  JAアナログテレメトリの最初の一行の換算例.

   テレメトリ	内   容		換算値	単 位
 3C	磁気センサーZ軸	=	48039.2	nT
 3D	磁気センサX軸	=	37254.9	nT
 4A	太陽電池発生電流	=	 1196.1	mA
 4B	B充放電電流	=	 -118.4	mA
 4C	B端子電圧	=	   15.8	V
 4D	B中間端子電圧	=	    7.0	V
 5A	バス電圧 	=	   17.3	V
 5B	JTA送信電力	=	  837.9	mW
 5C 	構体温度1	=	   17.8	℃
 5D	構体温度2	=	   17.8	℃
 6A	構体温度3	=	   18.6	℃
 6B	構体温度4	=	   18.2	℃
 6C	Bセル温度	=	   17.8	℃

 * 上記のように連続して得られたJDとJAデータを皆さんで比較して検討してみて下さい.

 −−−−−−−−−−−−−−−−−−−−−−−−−−−−−−−−−−−−−−
  
・次のJAアナログのテレメトリデータも取得できました.参考までに提示しておきます.

